Regional Weather Roundup
Issued by NWS

Home | Current Version | Previous Version | Graphics & Text | Print | Product List | Glossary On
Versions: 1 2 3 4 5 6 7 8 9 10 11 12 13 14 15 16 17 18 19 20 21 22 23 24 25 26 27 28 29 30 31 32 33 34 35 36 37 38 39 40 41 42 43 44 45 46 47 48 49 50
000
ASUS43 KMPX 301201
RWRMN
WEATHER ROUNDUP FOR MINNESOTA
NATIONAL WEATHER SERVICE TWIN CITIES/CHANHASSEN MN
700 AM CDT THU MAR 30 2017


NOTE: "FAIR" INDICATES FEW OR NO CLOUDS BELOW 12,000 FEET WITH NO
SIGNIFICANT WEATHER AND/OR OBSTRUCTIONS TO VISIBILITY. N/A MEANS
CURRENT SKY AND/OR WEATHER CONDITIONS ARE NOT AVAILABLE.

MNZ060>063-068>070-301300-
   Twin Cities Metro

CITY           SKY/WX    TMP DP  RH WIND       PRES   REMARKS
TWIN CITIES    CLOUDY    39  35  86 NE10      29.94F
6HR MIN TEMP:  39; 6HR MAX TEMP:  42; 6HR PCP:  0.02;

ST PAUL        CLOUDY    39  37  92 NE10      29.96F
CRYSTAL        CLOUDY    40  34  79 NE10      29.94F
BLAINE         DRIZZLE   41  37  87 NE12      29.95F
LAKEVILLE      CLOUDY    36  36 100 NE13      29.92F
EDEN PRAIRIE   CLOUDY    40  36  86 E15G22    29.92F
6HR MIN TEMP:  40; 6HR MAX TEMP:  42; 6HR PCP:  0.01;

SOUTH ST PAUL  CLOUDY    39  37  95 NE5       29.95S
LAKE ELMO      CLOUDY    37  36  93 NE8       29.96F
$$
MNZ001>005-007-008-013>017-022>024-027-028-301300-
   Northwest Minnesota

CITY           SKY/WX    TMP DP  RH WIND       PRES   REMARKS
BEMIDJI        PTCLDY    27  26  97 SE5       29.99F WCI  21
HALLOCK        MOCLDY    37  36  93 S12       29.92F
ROSEAU         MOCLDY    36  32  87 S6        29.96F
WARROAD        CLOUDY    36  30  80 S5        29.98S
THIEF RVR FALL CLEAR     33  32  96 SE7       29.99S WCI  27
CROOKSTON      CLEAR     32  30  93 S7        29.98S WCI  26
FOSSTON        FOG       34  34 100 SE5       29.98S VSB 1/2 WCI  30
DETROIT LAKES  CLOUDY    34  34 100 SE5       29.97F FOG     WCI  30
MOORHEAD       PTCLDY    34  34 100 SE7       29.97F WCI  28
PARK RAPIDS    CLOUDY    32  28  85 CALM      29.98F
MAHNOMEN       FOG       34  34  99 S7        29.97F VSB 1/2 WCI  28
$$
MNZ006-009>011-018-025>026-301300-
   North Central Minnesota

CITY           SKY/WX    TMP DP  RH WIND       PRES   REMARKS
BAUDETTE       CLEAR     29  27  92 SE7       30.00S WCI  22
FLAG ISLAND    CLOUDY    34  30  86 SE14      29.96F WCI  24
INTL FALLS     CLEAR     26  23  88 SE6       30.03S WCI  19
6HR MIN TEMP:  26; 6HR MAX TEMP:  34;

WASKISH        CLEAR     30  28  93 SE3       30.00F
BIG FORK       CLEAR     27  27 100 CALM      30.02F
LONGVILLE      FOG       27  27 100 CALM      30.01F VSB 1/2
GRAND RAPIDS   FOG       27  27 100 CALM      30.03F VSB 1/4
CRANE LAKE     CLEAR     21  19  93 CALM      30.07
ORR            CLEAR     27  21  80 CALM      30.01F
COOK           CLOUDY    25  23  93 CALM      30.04F
WALKER         FAIR      27  26  97 E3        30.00F
$$
MNZ012-019>021-037-301300-
   Northeast Minnesota

CITY           SKY/WX    TMP DP  RH WIND       PRES   REMARKS
DULUTH         CLOUDY    31  29  92 E6        30.02F WCI  25
6HR MIN TEMP:  30; 6HR MAX TEMP:  31;

ELY            CLOUDY    28  25  86 CALM      30.04F
HIBBING        CLOUDY    24  24 100 CALM      30.03F
EVELETH        CLOUDY    27  25  93 NE3       30.04F
DULUTH HARBOR  CLOUDY    34  32  93 NE15      30.06F WCI  24
TWO HARBORS    CLOUDY    34  28  80 NE5       30.02F WCI  30
GRAND MARAIS     N/A     35  27  72 NE8       30.10F WCI  29
G MARAIS ARPRT CLOUDY    27  21  80 N6        30.06F WCI  20
$$
MNZ029>031-032-039>041-046>048-054>057-064-301300-
   West Central Minnesota

CITY           SKY/WX    TMP DP  RH WIND       PRES   REMARKS
FERGUS FALLS   PTCLDY    36  36 100 E5        30.00F FOG
WHEATON        CLOUDY    36  34  93 E7        29.96F
MORRIS         CLOUDY    39  37  93 E7        29.95S
ALEXANDRIA     CLOUDY    37  35  92 E7        29.96F
ELBOW LAKE     CLOUDY    38  37  95 E8        29.96F
WADENA         CLOUDY    32  30  93 CALM      29.98F
GLENWOOD       CLOUDY    36  36 100 NE7       29.96F
APPLETON       CLOUDY    39  37  93 CALM      29.94F
BENSON         CLOUDY    41  36  81 E7        29.96F
ORTONVILLE     CLOUDY    39  36  87 E5        29.95F
MADISON        CLOUDY    41  41 100 NE8       29.94F
WILLMAR        MOCLDY    39  37  93 NE10      29.95S
$$
MNZ033>034-036-042>043-049>051-058-059-301300-
   Central Minnesota

CITY           SKY/WX    TMP DP  RH WIND       PRES   REMARKS
ST CLOUD       CLOUDY    35  32  88 NE8       29.97F WCI  29
6HR MIN TEMP:  35; 6HR MAX TEMP:  40;

SAUK CENTRE    CLOUDY    35  33  90 NE6       29.96F WCI  30
PAYNESVILLE    CLOUDY    37  37 100 NE9       29.95F
AITKIN         CLOUDY    32  28  86 NE3       29.99F
PINE RIVER     CLOUDY    28  28 100 CALM      30.03F
BRAINERD       CLOUDY    31  29  92 NE5       29.99F WCI  26
STAPLES        CLOUDY    30  28  93 CALM      29.98F
LONG PRAIRIE   CLOUDY    34  32  93 N3        29.97F
LITTLE FALLS   CLOUDY    32  30  93 CALM      29.98F
LITCHFIELD     CLOUDY    37  36  93 NE10      29.94F
BUFFALO        CLOUDY    37  34  89 N9        29.96S
MAPLE LAKE     CLOUDY    37  35  90 NE8       29.97S
HUTCHINSON     CLOUDY    39  38  94 NE13G20   29.94S
$$
MNZ037-044-045-052-053-301300-
   East Central Minnesota

CITY           SKY/WX    TMP DP  RH WIND       PRES   REMARKS
PRINCETON      CLOUDY    36  30  80 N9        29.98F
MORA           CLOUDY    32  30  93 NE3       30.02S
CAMBRIDGE      CLOUDY    37  28  70 N6        29.97S
RUSH CITY      CLOUDY    33  30  88 NE7       30.00S WCI  27
MOOSE LAKE     CLOUDY    32  32 100 NE5       30.00F WCI  27
CLOQUET        CLOUDY    32  30  93 E7        30.02F WCI  26
MCGREGOR       CLOUDY    32  30  93 NE3       30.01F
$$
MNZ071>073-080-081-089-090-097-098-301300-
   Southwest Minnesota

CITY           SKY/WX    TMP DP  RH WIND       PRES   REMARKS
MONTEVIDEO     CLOUDY    37  37 100 E8        29.93F
GRANITE FALLS  CLOUDY    40  37  89 NE10      29.94S
CANBY          CLOUDY    39  38  97 NE3       29.93F FOG
MARSHALL       LGT RAIN  38  37  97 NE12      29.91F
REDWOOD FALLS  CLOUDY    39  36  89 NE8       29.91S
OLIVIA         CLOUDY    39  36  87 NE9       29.92S
PIPESTONE      CLOUDY    37  34  87 NE13G18   29.86S
WINDOM         CLOUDY    37  36  93 NE15G21   29.85S
WORTHINGTON    CLOUDY    36  35  96 NE16      29.85R
JACKSON          N/A     36  36 100 NE20      29.84S FOG
TRACY          CLOUDY    38  38  99 NE12      29.89F
SLAYTON        CLOUDY    36  35  97 NE12      29.87F
$$
MNZ065>067-074>077-082>085-091>093-301300-
   South Central Minnesota

CITY           SKY/WX    TMP DP  RH WIND       PRES   REMARKS
MANKATO        LGT RAIN  38  36  92 NE16      29.88F
NEW ULM        CLOUDY    37  36  93 NE9       29.89S
ST JAMES       CLOUDY    37  36  93 NE13      29.87F
FAIRMONT       CLOUDY    36  35  96 NE16G23   29.84F
GLENCOE        CLOUDY    39  39 100 NE5       29.92S
FARIBAULT      DRIZZLE   37  36  93 N10       29.90S
OWATONNA       CLOUDY    37  36  93 NE14      29.87F
WASECA         CLOUDY    36  34  93 NE14G20   29.88S FOG
ALBERT LEA     DRIZZLE   36  36 100 NE13      29.84S
$$
MNZ078>079-086>088-094>096-301300-
   Southeast Minnesota

CITY           SKY/WX    TMP DP  RH WIND       PRES   REMARKS
ROCHESTER      CLOUDY    36  35  96 NE16      29.86S FOG
6HR MIN TEMP:  36; 6HR MAX TEMP:  38; 6HR PCP:  0.08;

RED WING       DRIZZLE   37  36  93 E9G17     29.92F
STANTON        CLOUDY    38  35  89 NE10      29.90F
DODGE CENTER   CLOUDY    36  36 100 NE16      29.86S FOG
WINONA         CLOUDY    37  36  93 E8G16     29.91F
AUSTIN         RAIN      36  34  93 NE15      29.83F
PRESTON        CLOUDY    35  33  94 NE13      29.84F FOG     WCI  26
$$
ABBREVIATIONS USED IN REMARKS
   TC - TEMPERATURES IN CELSIUS
  WCI - WIND CHILL INDEX
   HX - HEAT INDEX
  VSB - VISIBILITY
$$



USA.gov is the U.S. government's official web portal to all federal, state and local government web resources and services.